Year,Month,Day,Hour,Minute,Value (Times are PST for temperature in C)
2010,07,13,00,00,12.90
2010,07,13,00,05,13.00
2010,07,13,00,06,13.00
2010,07,13,00,07,12.90
2010,07,13,00,08,12.90
2010,07,13,00,09,12.90
2010,07,13,00,10,12.90
2010,07,13,00,11,12.90
2010,07,13,00,12,12.90
2010,07,13,00,13,12.90
2010,07,13,00,14,12.90
2010,07,13,00,15,12.90
2010,07,13,00,16,12.90
2010,07,13,00,17,12.90
2010,07,13,00,18,12.80
2010,07,13,00,19,12.80
2010,07,13,00,20,12.80
2010,07,13,00,21,12.70
2010,07,13,00,22,12.70
2010,07,13,00,23,12.70
2010,07,13,00,24,12.70
2010,07,13,00,25,12.60
2010,07,13,00,26,12.60
2010,07,13,00,27,12.60
2010,07,13,00,28,12.60
2010,07,13,00,29,12.50
2010,07,13,00,30,12.50
2010,07,13,00,31,12.50
2010,07,13,00,32,12.50
2010,07,13,00,33,12.50
2010,07,13,00,34,12.50
2010,07,13,00,35,12.50
2010,07,13,00,36,12.50
2010,07,13,00,37,12.50
2010,07,13,00,38,12.50
2010,07,13,00,39,12.50
2010,07,13,00,40,12.40
2010,07,13,00,41,12.40
2010,07,13,00,42,12.40
2010,07,13,00,43,12.40
2010,07,13,00,44,12.40
2010,07,13,00,45,12.40
2010,07,13,00,46,12.40
2010,07,13,00,47,12.40
2010,07,13,00,48,12.40
2010,07,13,00,49,12.40
2010,07,13,00,50,12.40
2010,07,13,00,51,12.40
2010,07,13,00,52,12.40
2010,07,13,00,53,12.40
2010,07,13,00,54,12.30
2010,07,13,00,55,12.30
2010,07,13,00,56,12.30
2010,07,13,00,57,12.30
2010,07,13,00,58,12.20
2010,07,13,00,59,12.20
2010,07,13,01,00,12.20
2010,07,13,01,01,12.20
2010,07,13,01,02,12.20
2010,07,13,01,03,12.20
2010,07,13,01,04,12.20
2010,07,13,01,05,12.10
2010,07,13,01,06,12.10
2010,07,13,01,07,12.10
2010,07,13,01,08,12.10
2010,07,13,01,09,12.10
2010,07,13,01,10,12.10
2010,07,13,01,11,12.10
2010,07,13,01,12,12.10
2010,07,13,01,13,12.10
2010,07,13,01,14,12.10
2010,07,13,01,15,12.10
2010,07,13,01,16,12.10
2010,07,13,01,17,12.10
2010,07,13,01,18,12.10
2010,07,13,01,19,12.10
2010,07,13,01,20,12.20
2010,07,13,01,21,12.20
2010,07,13,01,22,12.20
2010,07,13,01,23,12.20
2010,07,13,01,24,12.20
2010,07,13,01,25,12.20
2010,07,13,01,26,12.20
2010,07,13,01,27,12.20
2010,07,13,01,28,12.20
2010,07,13,01,29,12.20
2010,07,13,01,30,12.20
2010,07,13,01,31,12.20
2010,07,13,01,32,12.20
2010,07,13,01,33,12.20
2010,07,13,01,34,12.20
2010,07,13,01,35,12.10
2010,07,13,01,36,12.10
2010,07,13,01,37,12.10
2010,07,13,01,38,12.10
2010,07,13,01,39,12.10
2010,07,13,01,40,12.10
2010,07,13,01,41,12.10
2010,07,13,01,42,12.10
2010,07,13,01,43,12.10
2010,07,13,01,44,12.10
2010,07,13,01,45,12.00
2010,07,13,01,46,12.00
2010,07,13,01,47,12.00
2010,07,13,01,48,12.00
2010,07,13,01,49,11.90
2010,07,13,01,50,11.90
2010,07,13,01,51,11.90
2010,07,13,01,52,11.90
2010,07,13,01,53,11.90
2010,07,13,01,54,11.90
2010,07,13,01,55,11.90
2010,07,13,01,56,11.90
2010,07,13,01,57,11.90
2010,07,13,01,58,11.90
2010,07,13,01,59,11.90
2010,07,13,02,00,11.80
2010,07,13,02,01,11.80
2010,07,13,02,02,11.80
2010,07,13,02,03,11.80
2010,07,13,02,04,11.80
2010,07,13,02,05,11.70
2010,07,13,02,06,11.70
2010,07,13,02,07,11.60
2010,07,13,02,08,11.50
2010,07,13,02,09,11.50
2010,07,13,02,10,11.40
2010,07,13,02,11,11.40
2010,07,13,02,12,11.30
2010,07,13,02,13,11.30
2010,07,13,02,14,11.30
2010,07,13,02,15,11.30
2010,07,13,02,16,11.30
2010,07,13,02,17,11.30
2010,07,13,02,18,11.30
2010,07,13,02,19,11.30
2010,07,13,02,20,11.20
2010,07,13,02,21,11.20
2010,07,13,02,22,11.20
2010,07,13,02,23,11.30
2010,07,13,02,24,11.30
2010,07,13,02,25,11.30
2010,07,13,02,26,11.30
2010,07,13,02,27,11.30
2010,07,13,02,28,11.30
2010,07,13,02,29,11.30
2010,07,13,02,30,11.30
2010,07,13,02,31,11.30
2010,07,13,02,32,11.30
2010,07,13,02,33,11.20
2010,07,13,02,34,11.20
2010,07,13,02,35,11.20
2010,07,13,02,36,11.10
2010,07,13,02,37,11.10
2010,07,13,02,38,11.10
2010,07,13,02,39,11.10
2010,07,13,02,40,11.10
2010,07,13,02,41,11.10
2010,07,13,02,42,11.10
2010,07,13,02,43,11.10
2010,07,13,02,44,11.10
2010,07,13,02,45,11.00
2010,07,13,02,46,11.00
2010,07,13,02,47,11.00
2010,07,13,02,48,10.90
2010,07,13,02,49,10.90
2010,07,13,02,50,10.90
2010,07,13,02,51,10.90
2010,07,13,02,52,10.80
2010,07,13,02,53,10.80
2010,07,13,02,54,10.80
2010,07,13,02,55,10.70
2010,07,13,02,56,10.70
2010,07,13,02,57,10.70
2010,07,13,02,58,10.70
2010,07,13,02,59,10.70
2010,07,13,03,00,10.70
2010,07,13,03,01,10.70
2010,07,13,03,02,10.70
2010,07,13,03,03,10.70
2010,07,13,03,04,10.70
2010,07,13,03,05,10.70
2010,07,13,03,06,10.70
2010,07,13,03,07,10.70
2010,07,13,03,08,10.70
2010,07,13,03,09,10.60
2010,07,13,03,10,10.60
2010,07,13,03,11,10.50
2010,07,13,03,12,10.50
2010,07,13,03,13,10.40
2010,07,13,03,14,10.40
2010,07,13,03,15,10.40
2010,07,13,03,16,10.30
2010,07,13,03,17,10.30
2010,07,13,03,18,10.30
2010,07,13,03,19,10.30
2010,07,13,03,20,10.30
2010,07,13,03,21,10.30
2010,07,13,03,22,10.20
2010,07,13,03,23,10.20
2010,07,13,03,24,10.20
2010,07,13,03,25,10.20
2010,07,13,03,26,10.20
2010,07,13,03,27,10.20
2010,07,13,03,28,10.10
2010,07,13,03,29,10.10
2010,07,13,03,30,10.10
2010,07,13,03,31,10.10
2010,07,13,03,32,10.10
2010,07,13,03,33,10.10
2010,07,13,03,34,10.10
2010,07,13,03,35,10.10
2010,07,13,03,36,10.10
2010,07,13,03,37,10.10
2010,07,13,03,38,10.10
2010,07,13,03,39,10.10
2010,07,13,03,40,10.10
2010,07,13,03,41,10.10
2010,07,13,03,42,10.00
2010,07,13,03,43,10.00
2010,07,13,03,44,10.00
2010,07,13,03,45,10.00
2010,07,13,03,46,10.00
2010,07,13,03,47,10.00
2010,07,13,03,48,10.00
2010,07,13,03,49,10.00
2010,07,13,03,50,10.00
2010,07,13,03,51,10.00
2010,07,13,03,52,10.00
2010,07,13,03,53,10.00
2010,07,13,03,54,10.00
2010,07,13,03,55,10.10
2010,07,13,03,56,10.10
2010,07,13,03,57,10.20
2010,07,13,03,58,10.30
2010,07,13,03,59,10.30
2010,07,13,04,00,10.30
2010,07,13,04,01,10.30
2010,07,13,04,02,10.30
2010,07,13,04,03,10.30
2010,07,13,04,04,10.20
2010,07,13,04,05,10.20
2010,07,13,04,06,10.20
2010,07,13,04,07,10.20
2010,07,13,04,08,10.10
2010,07,13,04,09,10.20
2010,07,13,04,10,10.20
2010,07,13,04,11,10.30
2010,07,13,04,12,10.30
2010,07,13,04,13,10.30
2010,07,13,04,14,10.30
2010,07,13,04,15,10.30
2010,07,13,04,16,10.40
2010,07,13,04,17,10.50
2010,07,13,04,18,10.60
2010,07,13,04,19,10.60
2010,07,13,04,20,10.60
2010,07,13,04,21,10.60
2010,07,13,04,22,10.50
2010,07,13,04,23,10.50
2010,07,13,04,24,10.40
2010,07,13,04,25,10.40
2010,07,13,04,26,10.40
2010,07,13,04,27,10.30
2010,07,13,04,28,10.30
2010,07,13,04,29,10.30
2010,07,13,04,30,10.40
2010,07,13,04,31,10.40
2010,07,13,04,32,10.30
2010,07,13,04,33,10.30
2010,07,13,04,34,10.30
2010,07,13,04,35,10.20
2010,07,13,04,36,10.20
2010,07,13,04,37,10.10
2010,07,13,04,38,10.10
2010,07,13,04,39,10.10
2010,07,13,04,40,10.00
2010,07,13,04,41,10.00
2010,07,13,04,42,10.10
2010,07,13,04,43,10.10
2010,07,13,04,44,10.10
2010,07,13,04,45,10.10
2010,07,13,04,46,10.10
2010,07,13,04,47,10.10
2010,07,13,04,48,10.10
2010,07,13,04,49,10.10
2010,07,13,04,50,10.10
2010,07,13,04,51,10.00
2010,07,13,04,52,10.00
2010,07,13,04,53,10.00
2010,07,13,04,54,9.90
2010,07,13,04,55,9.90
2010,07,13,04,56,9.90
2010,07,13,04,57,9.90
2010,07,13,04,58,9.80
2010,07,13,04,59,9.80
2010,07,13,05,00,9.80
2010,07,13,05,01,9.80
2010,07,13,05,02,9.80
2010,07,13,05,03,9.80
2010,07,13,05,04,9.80
2010,07,13,05,05,9.80
2010,07,13,05,06,9.80
2010,07,13,05,07,9.90
2010,07,13,05,08,9.90
2010,07,13,05,09,9.90
2010,07,13,05,10,9.90
2010,07,13,05,11,9.90
2010,07,13,05,12,10.00
2010,07,13,05,13,9.90
2010,07,13,05,14,9.90
2010,07,13,05,15,9.90
2010,07,13,05,16,9.90
2010,07,13,05,17,10.00
2010,07,13,05,18,10.00
2010,07,13,05,19,10.00
2010,07,13,05,20,10.00
2010,07,13,05,21,10.00
2010,07,13,05,22,9.90
2010,07,13,05,23,9.90
2010,07,13,05,24,9.90
2010,07,13,05,25,9.90
2010,07,13,05,26,9.90
2010,07,13,05,27,9.80
2010,07,13,05,28,9.80
2010,07,13,05,29,9.90
2010,07,13,05,30,9.90
2010,07,13,05,31,9.90
2010,07,13,05,32,9.90
2010,07,13,05,33,9.90
2010,07,13,05,34,9.90
2010,07,13,05,35,9.90
2010,07,13,05,36,9.90
2010,07,13,05,37,9.90
2010,07,13,05,38,9.90
2010,07,13,05,39,9.80
2010,07,13,05,40,9.80
2010,07,13,05,41,9.80
2010,07,13,05,42,9.80
2010,07,13,05,43,9.80
2010,07,13,05,44,9.80
2010,07,13,05,45,9.80
2010,07,13,05,46,9.80
2010,07,13,05,47,9.80
2010,07,13,05,48,9.80
2010,07,13,05,49,9.80
2010,07,13,05,50,9.80
2010,07,13,05,51,9.80
2010,07,13,05,52,9.90
2010,07,13,05,53,9.90
2010,07,13,05,54,10.00
2010,07,13,05,55,10.00
2010,07,13,05,56,10.10
2010,07,13,05,57,10.10
2010,07,13,05,58,10.10
2010,07,13,05,59,10.10
2010,07,13,06,00,10.20
2010,07,13,06,01,10.20
2010,07,13,06,02,10.30
2010,07,13,06,03,10.40
2010,07,13,06,04,10.40
2010,07,13,06,05,10.40
2010,07,13,06,06,10.40
2010,07,13,06,07,10.40
2010,07,13,06,08,10.50
2010,07,13,06,09,10.50
2010,07,13,06,10,10.50
2010,07,13,06,11,10.50
2010,07,13,06,12,10.50
2010,07,13,06,13,10.50
2010,07,13,06,14,10.50
2010,07,13,06,15,10.60
2010,07,13,06,16,10.60
2010,07,13,06,17,10.60
2010,07,13,06,18,10.70
2010,07,13,06,19,10.70
2010,07,13,06,20,10.70
2010,07,13,06,21,10.80
2010,07,13,06,22,10.80
2010,07,13,06,23,10.90
2010,07,13,06,24,10.90
2010,07,13,06,25,11.00
2010,07,13,06,26,11.10
2010,07,13,06,27,11.10
2010,07,13,06,28,11.10
2010,07,13,06,29,11.10
2010,07,13,06,30,11.20
2010,07,13,06,31,11.20
2010,07,13,06,32,11.20
2010,07,13,06,33,11.20
2010,07,13,06,34,11.20
2010,07,13,06,35,11.30
2010,07,13,06,36,11.30
2010,07,13,06,37,11.30
2010,07,13,06,38,11.30
2010,07,13,06,39,11.40
2010,07,13,06,40,11.50
2010,07,13,06,41,11.60
2010,07,13,06,42,11.60
2010,07,13,06,43,11.70
2010,07,13,06,44,11.70
2010,07,13,06,45,11.70
2010,07,13,06,46,11.80
2010,07,13,06,47,11.80
2010,07,13,06,48,11.90
2010,07,13,06,49,11.90
2010,07,13,06,50,12.00
2010,07,13,06,51,12.10
2010,07,13,06,52,12.20
2010,07,13,06,53,12.20
2010,07,13,06,54,12.30
2010,07,13,06,55,12.40
2010,07,13,06,56,12.40
2010,07,13,06,57,12.40
2010,07,13,06,58,12.50
2010,07,13,06,59,12.60
2010,07,13,07,00,12.60
2010,07,13,07,01,12.60
2010,07,13,07,02,12.60
2010,07,13,07,03,12.60
2010,07,13,07,04,12.70
2010,07,13,07,05,12.70
2010,07,13,07,06,12.70
2010,07,13,07,07,12.80
2010,07,13,07,08,12.80
2010,07,13,07,09,12.90
2010,07,13,07,10,12.90
2010,07,13,07,11,13.00
2010,07,13,07,12,13.10
2010,07,13,07,13,13.10
2010,07,13,07,14,13.20
2010,07,13,07,15,13.20
2010,07,13,07,16,13.20
2010,07,13,07,17,13.30
2010,07,13,07,18,13.30
2010,07,13,07,19,13.30
2010,07,13,07,20,13.40
2010,07,13,07,21,13.40
2010,07,13,07,22,13.50
2010,07,13,07,23,13.50
2010,07,13,07,24,13.50
2010,07,13,07,25,13.60
2010,07,13,07,26,13.60
2010,07,13,07,27,13.60
2010,07,13,07,28,13.60
2010,07,13,07,29,13.70
2010,07,13,07,30,13.70
2010,07,13,07,31,13.70
2010,07,13,07,32,13.70
2010,07,13,07,33,13.70
2010,07,13,07,34,13.70
2010,07,13,07,35,13.70
2010,07,13,07,36,13.80
2010,07,13,07,37,13.80
2010,07,13,07,38,13.80
2010,07,13,07,39,13.80
2010,07,13,07,40,13.80
2010,07,13,07,41,13.80
2010,07,13,07,42,13.80
2010,07,13,07,43,13.80
2010,07,13,07,44,13.90
2010,07,13,07,45,13.90
2010,07,13,07,46,13.90
2010,07,13,07,47,13.90
2010,07,13,07,48,13.90
2010,07,13,07,49,13.90
2010,07,13,07,50,13.90
2010,07,13,07,51,13.90
2010,07,13,07,52,14.00
2010,07,13,07,53,14.00
2010,07,13,07,54,14.10
2010,07,13,07,55,14.10
2010,07,13,07,56,14.10
2010,07,13,07,57,14.10
2010,07,13,07,58,14.10
2010,07,13,07,59,14.10
2010,07,13,08,00,14.20
2010,07,13,08,01,14.20
2010,07,13,08,02,14.20
2010,07,13,08,03,14.20
2010,07,13,08,04,14.20
2010,07,13,08,05,14.20
2010,07,13,08,06,14.20
2010,07,13,08,07,14.20
2010,07,13,08,08,14.20
2010,07,13,08,09,14.20
2010,07,13,08,10,14.30
2010,07,13,08,11,14.30
2010,07,13,08,12,14.30
2010,07,13,08,13,14.30
2010,07,13,08,14,14.30
2010,07,13,08,15,14.40
2010,07,13,08,16,14.40
2010,07,13,08,17,14.40
2010,07,13,08,18,14.40
2010,07,13,08,19,14.40
2010,07,13,08,20,14.50
2010,07,13,08,21,14.60
2010,07,13,08,22,14.60
2010,07,13,08,23,14.60
2010,07,13,08,24,14.70
2010,07,13,08,25,14.70
2010,07,13,08,26,14.60
2010,07,13,08,27,14.60
2010,07,13,08,28,14.60
2010,07,13,08,29,14.50
2010,07,13,08,30,14.50
2010,07,13,08,31,14.50
2010,07,13,08,32,14.50
2010,07,13,08,33,14.50
2010,07,13,08,34,14.50
2010,07,13,08,35,14.50
2010,07,13,08,36,14.60
2010,07,13,08,37,14.60
2010,07,13,08,38,14.70
2010,07,13,08,39,14.70
2010,07,13,08,40,14.80
2010,07,13,08,41,14.80
2010,07,13,08,42,14.80
2010,07,13,08,43,14.90
2010,07,13,08,44,14.90
2010,07,13,08,45,14.90
2010,07,13,08,46,14.90
2010,07,13,08,47,14.90
2010,07,13,08,48,14.90
2010,07,13,08,49,14.90
2010,07,13,08,50,15.00
2010,07,13,08,51,15.00
2010,07,13,08,52,15.10
2010,07,13,08,53,15.00
2010,07,13,08,54,15.00
2010,07,13,08,55,15.00
2010,07,13,08,56,15.10
2010,07,13,08,57,15.00
2010,07,13,08,58,15.00
2010,07,13,08,59,14.90
2010,07,13,09,00,14.80
2010,07,13,09,01,14.70
2010,07,13,09,02,14.70
2010,07,13,09,03,14.70
2010,07,13,09,04,14.70
2010,07,13,09,05,14.70
2010,07,13,09,06,14.70
2010,07,13,09,07,14.80
2010,07,13,09,08,14.80
2010,07,13,09,09,14.90
2010,07,13,09,10,14.90
2010,07,13,09,11,14.80
2010,07,13,09,12,14.80
2010,07,13,09,13,14.80
2010,07,13,09,14,14.80
2010,07,13,09,15,14.80
2010,07,13,09,16,14.90
2010,07,13,09,17,15.00
2010,07,13,09,18,15.00
2010,07,13,09,19,15.10
2010,07,13,09,20,15.00
2010,07,13,09,21,15.00
2010,07,13,09,22,15.00
2010,07,13,09,23,14.90
2010,07,13,09,24,14.90
2010,07,13,09,25,14.90
2010,07,13,09,26,14.80
2010,07,13,09,27,14.70
2010,07,13,09,28,14.70
2010,07,13,09,29,14.70
2010,07,13,09,30,14.70
2010,07,13,09,31,14.70
2010,07,13,09,32,14.70
2010,07,13,09,33,14.70
2010,07,13,09,34,14.80
2010,07,13,09,35,14.80
2010,07,13,09,36,14.80
2010,07,13,09,37,14.80
2010,07,13,09,38,14.80
2010,07,13,09,39,14.80
2010,07,13,09,40,14.80
2010,07,13,09,41,14.80
2010,07,13,09,42,14.80
2010,07,13,09,43,14.70
2010,07,13,09,44,14.70
2010,07,13,09,45,14.80
2010,07,13,09,46,14.80
2010,07,13,09,47,14.80
2010,07,13,09,48,14.90
2010,07,13,09,49,15.00
2010,07,13,09,50,15.10
2010,07,13,09,51,15.20
2010,07,13,09,52,15.20
2010,07,13,09,53,15.20
2010,07,13,09,54,15.20
2010,07,13,09,55,15.20
2010,07,13,09,56,15.10
2010,07,13,09,57,15.10
2010,07,13,09,58,15.10
2010,07,13,09,59,15.00
2010,07,13,10,00,14.90
2010,07,13,10,01,14.90
2010,07,13,10,02,14.90
2010,07,13,10,03,15.00
2010,07,13,10,04,15.00
2010,07,13,10,05,15.00
2010,07,13,10,06,15.10
2010,07,13,10,07,15.10
2010,07,13,10,08,15.10
2010,07,13,10,09,15.10
2010,07,13,10,10,15.20
2010,07,13,10,11,15.20
2010,07,13,10,12,15.20
2010,07,13,10,13,15.20
2010,07,13,10,14,15.20
2010,07,13,10,15,15.20
2010,07,13,10,16,15.10
2010,07,13,10,17,15.10
2010,07,13,10,18,15.20
2010,07,13,10,19,15.20
2010,07,13,10,20,15.20
2010,07,13,10,21,15.20
2010,07,13,10,22,15.20
2010,07,13,10,23,15.30
2010,07,13,10,24,15.30
2010,07,13,10,25,15.30
2010,07,13,10,26,15.30
2010,07,13,10,27,15.30
2010,07,13,10,28,15.30
2010,07,13,10,29,15.30
2010,07,13,10,30,15.30
2010,07,13,10,31,15.30
2010,07,13,10,32,15.30
2010,07,13,10,33,15.40
2010,07,13,10,34,15.40
2010,07,13,10,35,15.50
2010,07,13,10,36,15.50
2010,07,13,10,37,15.50
2010,07,13,10,38,15.60
2010,07,13,10,39,15.60
2010,07,13,10,40,15.50
2010,07,13,10,41,15.50
2010,07,13,10,42,15.40
2010,07,13,10,43,15.40
2010,07,13,10,44,15.50
2010,07,13,10,45,15.60
2010,07,13,10,46,15.60
2010,07,13,10,47,15.70
2010,07,13,10,48,15.70
2010,07,13,10,49,15.70
2010,07,13,10,50,15.70
2010,07,13,10,51,15.60
2010,07,13,10,52,15.60
2010,07,13,10,53,15.60
2010,07,13,10,54,15.50
2010,07,13,10,55,15.60
2010,07,13,10,56,15.60
2010,07,13,10,57,15.70
2010,07,13,10,58,15.70
2010,07,13,10,59,15.70
2010,07,13,11,00,15.70
2010,07,13,11,01,15.70
2010,07,13,11,02,15.70
2010,07,13,11,03,15.70
2010,07,13,11,04,15.70
2010,07,13,11,05,15.70
2010,07,13,11,06,15.80
2010,07,13,11,07,15.80
2010,07,13,11,08,15.90
2010,07,13,11,09,15.90
2010,07,13,11,10,16.00
2010,07,13,11,11,16.00
2010,07,13,11,12,16.00
2010,07,13,11,13,16.10
2010,07,13,11,14,16.20
2010,07,13,11,15,16.30
2010,07,13,11,16,16.20
2010,07,13,11,17,16.10
2010,07,13,11,18,16.10
2010,07,13,11,19,16.10
2010,07,13,11,20,16.10
2010,07,13,11,21,16.10
2010,07,13,11,22,16.20
2010,07,13,11,23,16.20
2010,07,13,11,24,16.20
2010,07,13,11,25,16.10
2010,07,13,11,26,16.10
2010,07,13,11,27,16.10
2010,07,13,11,28,16.10
2010,07,13,11,29,16.10
2010,07,13,11,30,16.10
2010,07,13,11,31,16.10
2010,07,13,11,32,16.10
2010,07,13,11,33,16.20
2010,07,13,11,34,16.20
2010,07,13,11,35,16.30
2010,07,13,11,36,16.30
2010,07,13,11,37,16.30
2010,07,13,11,38,16.30
2010,07,13,11,39,16.30
2010,07,13,11,40,16.40
2010,07,13,11,41,16.40
2010,07,13,11,42,16.40
2010,07,13,11,43,16.40
2010,07,13,11,44,16.40
2010,07,13,11,45,16.50
2010,07,13,11,46,16.70
2010,07,13,11,47,16.70
2010,07,13,11,48,16.70
2010,07,13,11,49,16.70
2010,07,13,11,50,16.60
2010,07,13,11,51,16.60
2010,07,13,11,52,16.70
2010,07,13,11,53,16.80
2010,07,13,11,54,16.90
2010,07,13,11,55,16.90
2010,07,13,11,56,17.00
2010,07,13,11,57,17.00
2010,07,13,11,58,17.10
2010,07,13,11,59,17.20
2010,07,13,12,00,17.20
2010,07,13,12,01,17.20
2010,07,13,12,02,17.20
2010,07,13,12,03,17.20
2010,07,13,12,04,17.20
2010,07,13,12,05,17.20
2010,07,13,12,06,17.30
2010,07,13,12,07,17.30
2010,07,13,12,08,17.30
2010,07,13,12,09,17.30
2010,07,13,12,10,17.30
2010,07,13,12,11,17.30
2010,07,13,12,12,17.30
2010,07,13,12,13,17.40
2010,07,13,12,14,17.40
2010,07,13,12,15,17.40
2010,07,13,12,16,17.40
2010,07,13,12,17,17.40
2010,07,13,12,18,17.40
2010,07,13,12,19,17.30
2010,07,13,12,20,17.30
2010,07,13,12,21,17.30
2010,07,13,12,22,17.30
2010,07,13,12,23,17.40
2010,07,13,12,24,17.50
2010,07,13,12,25,17.60
2010,07,13,12,26,17.70
2010,07,13,12,27,17.70
2010,07,13,12,28,17.80
2010,07,13,12,29,17.80
2010,07,13,12,30,17.70
2010,07,13,12,31,17.60
2010,07,13,12,32,17.60
2010,07,13,12,33,17.70
2010,07,13,12,34,17.80
2010,07,13,12,35,17.90
2010,07,13,12,36,18.00
2010,07,13,12,37,18.10
2010,07,13,12,38,18.20
2010,07,13,12,39,18.10
2010,07,13,12,40,18.10
2010,07,13,12,41,18.10
2010,07,13,12,42,18.10
2010,07,13,12,43,18.20
2010,07,13,12,44,18.20
2010,07,13,12,45,18.30
2010,07,13,12,46,18.20
2010,07,13,12,47,18.20
2010,07,13,12,48,18.30
2010,07,13,12,49,18.30
2010,07,13,12,50,18.30
2010,07,13,12,51,18.40
2010,07,13,12,52,18.40
2010,07,13,12,53,18.30
2010,07,13,12,54,18.30
2010,07,13,12,55,18.30
2010,07,13,12,56,18.30
2010,07,13,12,57,18.30
2010,07,13,12,58,18.40
2010,07,13,12,59,18.50
2010,07,13,13,00,18.70
2010,07,13,13,01,18.90
2010,07,13,13,02,19.00
2010,07,13,13,03,19.00
2010,07,13,13,04,19.00
2010,07,13,13,05,18.90
2010,07,13,13,06,19.00
2010,07,13,13,07,18.90
2010,07,13,13,08,18.90
2010,07,13,13,09,18.90
2010,07,13,13,10,18.80
2010,07,13,13,11,18.80
2010,07,13,13,12,18.70
2010,07,13,13,13,18.60
2010,07,13,13,14,18.60
2010,07,13,13,15,18.60
2010,07,13,13,16,18.60
2010,07,13,13,17,18.60
2010,07,13,13,18,18.60
2010,07,13,13,19,18.80
2010,07,13,13,20,18.90
2010,07,13,13,21,18.90
2010,07,13,13,22,19.00
2010,07,13,13,23,19.00
2010,07,13,13,24,19.10
2010,07,13,13,25,19.10
2010,07,13,13,26,19.10
2010,07,13,13,27,19.10
2010,07,13,13,28,19.10
2010,07,13,13,29,19.10
2010,07,13,13,30,19.10
2010,07,13,13,31,19.10
2010,07,13,13,32,19.10
2010,07,13,13,33,19.10
2010,07,13,13,34,19.10
2010,07,13,13,35,19.00
2010,07,13,13,36,18.90
2010,07,13,13,37,18.90
2010,07,13,13,38,18.90
2010,07,13,13,39,18.90
2010,07,13,13,40,19.00
2010,07,13,13,41,19.00
2010,07,13,13,42,19.10
2010,07,13,13,43,19.20
2010,07,13,13,44,19.30
2010,07,13,13,45,19.40
2010,07,13,13,46,19.50
2010,07,13,13,47,19.60
2010,07,13,13,48,19.70
2010,07,13,13,49,19.80
2010,07,13,13,50,19.80
2010,07,13,13,51,19.80
2010,07,13,13,52,19.70
2010,07,13,13,53,19.70
2010,07,13,13,54,19.60
2010,07,13,13,55,19.60
2010,07,13,13,56,19.60
2010,07,13,13,57,19.50
2010,07,13,13,58,19.60
2010,07,13,13,59,19.60
2010,07,13,14,00,19.50
2010,07,13,14,01,19.50
2010,07,13,14,02,19.40
2010,07,13,14,03,19.40
2010,07,13,14,04,19.40
2010,07,13,14,05,19.40
2010,07,13,14,06,19.40
2010,07,13,14,07,19.50
2010,07,13,14,08,19.60
2010,07,13,14,09,19.70
2010,07,13,14,10,19.60
2010,07,13,14,11,19.60
2010,07,13,14,12,19.60
2010,07,13,14,13,19.60
2010,07,13,14,14,19.70
2010,07,13,14,15,19.70
2010,07,13,14,16,19.80
2010,07,13,14,17,19.80
2010,07,13,14,18,19.80
2010,07,13,14,19,19.80
2010,07,13,14,20,19.70
2010,07,13,14,21,19.70
2010,07,13,14,22,19.70
2010,07,13,14,23,19.70
2010,07,13,14,24,19.70
2010,07,13,14,25,19.70
2010,07,13,14,26,19.80
2010,07,13,14,27,19.90
2010,07,13,14,28,20.00
2010,07,13,14,29,20.10
2010,07,13,14,30,20.10
2010,07,13,14,31,20.20
2010,07,13,14,32,20.30
2010,07,13,14,33,20.30
2010,07,13,14,34,20.30
2010,07,13,14,35,20.30
2010,07,13,14,36,20.20
2010,07,13,14,37,20.30
2010,07,13,14,38,20.30
2010,07,13,14,39,20.30
2010,07,13,14,40,20.20
2010,07,13,14,41,20.10
2010,07,13,14,42,20.00
2010,07,13,14,43,20.00
2010,07,13,14,44,19.90
2010,07,13,14,45,19.80
2010,07,13,14,46,19.70
2010,07,13,14,47,19.70
2010,07,13,14,48,19.70
2010,07,13,14,49,19.70
2010,07,13,14,50,19.70
2010,07,13,14,51,19.80
2010,07,13,14,52,19.80
2010,07,13,14,53,19.90
2010,07,13,14,54,19.90
2010,07,13,14,55,19.90
2010,07,13,14,56,19.90
2010,07,13,14,57,19.90
2010,07,13,14,58,19.90
2010,07,13,14,59,19.80
2010,07,13,15,00,19.80
2010,07,13,15,01,19.90
2010,07,13,15,02,20.10
2010,07,13,15,03,20.20
2010,07,13,15,04,20.30
2010,07,13,15,05,20.30
2010,07,13,15,06,20.40
2010,07,13,15,07,20.40
2010,07,13,15,08,20.40
2010,07,13,15,09,20.40
2010,07,13,15,10,20.40
2010,07,13,15,11,20.30
2010,07,13,15,12,20.30
2010,07,13,15,13,20.40
2010,07,13,15,14,20.50
2010,07,13,15,15,20.50
2010,07,13,15,16,20.60
2010,07,13,15,17,20.60
2010,07,13,15,18,20.60
2010,07,13,15,19,20.60
2010,07,13,15,20,20.50
2010,07,13,15,21,20.50
2010,07,13,15,22,20.50
2010,07,13,15,23,20.50
2010,07,13,15,24,20.50
2010,07,13,15,25,20.50
2010,07,13,15,26,20.40
2010,07,13,15,27,20.40
2010,07,13,15,28,20.30
2010,07,13,15,29,20.40
2010,07,13,15,30,20.50
2010,07,13,15,31,20.70
2010,07,13,15,32,20.70
2010,07,13,15,33,20.70
2010,07,13,15,34,20.70
2010,07,13,15,35,20.80
2010,07,13,15,36,20.90
2010,07,13,15,37,21.00
2010,07,13,15,38,21.10
2010,07,13,15,39,21.20
2010,07,13,15,40,21.20
2010,07,13,15,41,21.30
2010,07,13,15,42,21.30
2010,07,13,15,43,21.30
2010,07,13,15,44,21.30
2010,07,13,15,45,21.30
2010,07,13,15,46,21.40
2010,07,13,15,47,21.40
2010,07,13,15,48,21.50
2010,07,13,15,49,21.50
2010,07,13,15,50,21.50
2010,07,13,15,51,21.50
2010,07,13,15,52,21.50
2010,07,13,15,53,21.40
2010,07,13,15,54,21.40
2010,07,13,15,55,21.40
2010,07,13,15,56,21.40
2010,07,13,15,57,21.40
2010,07,13,15,58,21.40
2010,07,13,15,59,21.50
2010,07,13,16,00,21.60
2010,07,13,16,01,21.70
2010,07,13,16,02,21.70
2010,07,13,16,03,21.70
2010,07,13,16,04,21.60
2010,07,13,16,05,21.60
2010,07,13,16,06,21.60
2010,07,13,16,07,21.50
2010,07,13,16,08,21.50
2010,07,13,16,09,21.50
2010,07,13,16,10,21.60
2010,07,13,16,11,21.60
2010,07,13,16,12,21.50
2010,07,13,16,13,21.60
2010,07,13,16,14,21.60
2010,07,13,16,15,21.70
2010,07,13,16,16,21.70
2010,07,13,16,17,21.80
2010,07,13,16,18,21.80
2010,07,13,16,19,22.00
2010,07,13,16,20,22.00
2010,07,13,16,21,22.00
2010,07,13,16,22,21.90
2010,07,13,16,23,21.70
2010,07,13,16,24,21.70
2010,07,13,16,25,21.60
2010,07,13,16,26,21.50
2010,07,13,16,27,21.50
2010,07,13,16,28,21.60
2010,07,13,16,29,21.70
2010,07,13,16,30,21.70
2010,07,13,16,31,21.80
2010,07,13,16,32,21.80
2010,07,13,16,33,21.80
2010,07,13,16,34,21.80
2010,07,13,16,35,21.80
2010,07,13,16,36,21.90
2010,07,13,16,37,21.90
2010,07,13,16,38,22.00
2010,07,13,16,39,22.10
2010,07,13,16,40,22.00
2010,07,13,16,41,21.90
2010,07,13,16,42,21.90
2010,07,13,16,43,21.90
2010,07,13,16,44,22.00
2010,07,13,16,45,22.10
2010,07,13,16,46,22.20
2010,07,13,16,47,22.20
2010,07,13,16,48,22.20
2010,07,13,16,49,22.20
2010,07,13,16,50,22.20
2010,07,13,16,51,22.10
2010,07,13,16,52,21.90
2010,07,13,16,53,21.90
2010,07,13,16,54,21.80
2010,07,13,16,55,21.80
2010,07,13,16,56,21.80
2010,07,13,16,57,21.90
2010,07,13,16,58,21.90
2010,07,13,16,59,21.80
2010,07,13,17,00,21.80
2010,07,13,17,01,21.80
2010,07,13,17,02,21.80
2010,07,13,17,03,21.80
2010,07,13,17,04,21.80
2010,07,13,17,05,21.80
2010,07,13,17,06,21.80
2010,07,13,17,07,21.80
2010,07,13,17,08,21.90
2010,07,13,17,09,21.90
2010,07,13,17,10,22.00
2010,07,13,17,11,22.00
2010,07,13,17,12,22.10
2010,07,13,17,13,22.10
2010,07,13,17,14,22.10
2010,07,13,17,15,22.10
2010,07,13,17,16,22.10
2010,07,13,17,17,22.20
2010,07,13,17,18,22.20
2010,07,13,17,19,22.30
2010,07,13,17,20,22.30
2010,07,13,17,21,22.30
2010,07,13,17,22,22.40
2010,07,13,17,23,22.30
2010,07,13,17,24,22.30
2010,07,13,17,25,22.20